CDT,Max TemperatureF,Mean TemperatureF,Min TemperatureF,Max Dew PointF,MeanDew PointF,Min DewpointF,Max Humidity, Mean Humidity, Min Humidity, Max Sea Level PressureIn, Mean Sea Level PressureIn, Min Sea Level PressureIn, Max VisibilityMiles, Mean VisibilityMiles, Min VisibilityMiles, Max Wind SpeedMPH, Mean Wind SpeedMPH, Max Gust SpeedMPH,PrecipitationIn, CloudCover, Events, WindDirDegrees
2013-7-1,69,67,65,68,65,62,94,92,87,29.90,29.87,29.82,10,9,3,14,8,20,0.57,6,Rain-Thunderstorm,350
2013-7-2,77,72,66,68,65,62,95,84,66,30.01,29.94,29.88,10,8,2,13,6,20,0.30,7,Rain,143
2013-7-3,82,74,66,68,63,59,93,75,46,30.11,30.06,30.00,10,9,5,10,5,,0.00,5,,221
2013-7-4,83,72,61,69,65,61,96,81,57,30.11,30.08,30.03,10,7,1,9,2,,0.00,1,,102
2013-7-5,82,72,64,70,67,63,95,82,61,30.12,30.07,30.04,10,8,2,7,2,,0.00,5,Rain,98
2013-7-6,85,76,67,70,68,65,93,78,56,30.09,30.06,30.01,10,10,7,12,6,,0.15,3,Rain-Thunderstorm,140
2013-7-7,90,76,63,71,67,62,94,76,49,30.11,30.07,30.03,10,10,4,9,4,,0.00,1,,170
2013-7-8,93,80,68,74,70,66,95,72,42,30.14,30.09,30.05,10,9,4,13,5,,0.00,0,,189
2013-7-9,95,85,75,77,73,69,92,70,42,30.09,30.04,29.97,10,10,7,13,6,17,0.00,1,,196
2013-7-10,87,82,76,74,72,69,89,74,56,30.02,29.95,29.89,10,10,10,12,5,18,0.00,2,Rain,223
2013-7-11,86,76,67,73,62,53,94,63,33,30.04,30.00,29.94,10,10,7,15,7,21,0.10,1,,6
2013-7-12,86,74,63,65,59,53,88,62,32,30.11,30.06,30.02,10,10,5,13,6,17,0.00,0,,25
2013-7-13,87,74,61,68,62,57,91,70,38,30.09,30.05,30.02,10,10,10,12,5,18,0.05,1,Rain-Thunderstorm,36
2013-7-14,91,78,65,72,68,63,93,70,46,30.16,30.11,30.06,10,9,5,12,4,10,0.00,2,,106
2013-7-15,91,82,72,73,72,70,93,73,52,30.26,30.22,30.15,10,10,3,13,4,16,0.00,2,,123
2013-7-16,94,82,69,75,70,67,94,71,41,30.32,30.28,30.25,10,9,0,8,2,,0.00,1,Fog,141
2013-7-17,96,84,72,75,72,66,94,69,39,30.34,30.27,30.20,10,8,1,7,1,,0.00,1,,2
2013-7-18,95,84,73,76,73,68,94,71,40,30.22,30.13,30.04,10,8,2,10,2,,0.00,0,,149
2013-7-19,95,84,73,74,71,68,95,69,42,30.05,29.99,29.92,10,8,1,12,5,16,0.00,1,,198
2013-7-20,95,83,71,72,70,67,93,74,43,29.99,29.92,29.82,10,9,2,20,7,29,1.17,2,Rain-Thunderstorm,195
2013-7-21,89,78,69,76,71,68,95,85,51,29.97,29.92,29.87,10,7,2,10,2,,0.76,3,Rain-Thunderstorm,153
2013-7-22,89,80,72,73,71,69,95,78,52,29.87,29.84,29.81,10,8,3,12,5,16,0.13,4,Rain,231
2013-7-23,92,80,69,76,72,68,94,74,53,29.89,29.82,29.75,10,10,7,13,6,16,0.09,2,Rain-Thunderstorm,233
2013-7-24,81,74,65,70,60,55,90,65,42,30.01,29.95,29.87,10,10,10,13,7,,0.00,1,,357
2013-7-25,81,70,60,64,59,52,94,69,38,30.10,30.06,30.00,10,10,7,9,4,,0.00,1,,2
2013-7-26,83,70,58,68,62,57,96,76,41,30.09,30.04,29.98,10,8,0,10,2,,0.02,3,Fog-Rain,229
2013-7-27,81,70,59,67,60,52,93,71,42,30.00,29.95,29.92,10,9,3,14,7,20,0.31,4,Rain-Thunderstorm,281
2013-7-28,79,66,53,62,54,48,95,68,37,30.07,30.03,29.99,10,10,5,10,2,,0.00,2,,246
2013-7-29,83,70,56,67,61,55,96,73,40,30.18,30.14,30.07,10,10,5,8,1,,0.00,1,,207
2013-7-30,72,70,67,69,67,62,95,90,71,30.17,30.12,30.05,10,7,1,10,4,,1.33,5,Rain,131
2013-7-31,84,76,70,73,70,68,95,85,63,30.06,30.01,29.95,10,7,2,8,4,,0.03,7,Rain,74